sat.trackr.live / text

‹ back to catalog

SAUDICOMSAT 7

NORAD 31119 · 2007-012C

PAYLOAD ACTIVE UNKNOWN

§ Identity

Operator
Country
SAUD
Launch date
2007-04-17
Launch site
TYMSC
Launch vehicle
Mass (kg)
RCS (m²)
0.07

External: N2YO · Heavens-Above · Gunter

§ Orbital elements

Epoch: 2026-05-25T04:20:46.677984Z

Period
98.22 min
Inclination
98.3766°
Eccentricity
0.0054361
Mean motion
14.66083190 rev/d
Perigee alt
635.3 km
Apogee alt
711.9 km
Semi-major
7,051.7 km
B*
8.7500e-5
RAAN
118.8440°
Arg perigee
268.6277°
Mean anomaly
90.8698°
Rev number
1,906

§ Raw data

SAUDICOMSAT 71 31119U 07012C   26145.18109581  .00000436  00000+0  87500-4 0  99922 31119  98.3766 118.8440 0054361 268.6277  90.8698 14.66083190 19063

JSON: /api/v1/satellites/31119 · /tle

For live sub-satellite position, see the globe view (requires WebGL).

§ Visibility from observer

Set your observer location to see the next 7 days of passes ≥ 10°. The values pass through the URL so the page stays shareable.

No JS? Fill the form by hand. The geolocation button needs JavaScript.